Weather in Buranovo

Russia / Novosibirsk Oblast     54°12′18″N   83°53′42″E
temp.,
°C
wind,
m/s
gust,
m/s
humid.,
%
clouds,
%
prec.,
mm/h
press.,
hPa
HPBL,
m
28 february, sun
sun2801:00−28ssw239947 0.0 104023
04:00−29s239962 0.0 103919
07:00−29sse239952 0.0 104032
10:00−26se369772 0.0 1038168
13:00−19sse479376 0.0 1035322
16:00−15sse499095 0.0 1032529
19:00−14se489597 0.3 1028316
22:00−13se41095100 0.7 1026364
1 march, mon
mon101:00−11se4995100 1.6 1022382
04:00−9sse41095100 0.9 1019590
07:00−9sse51195100 2.4 1015605
10:00−7s51195100 1.9 1012698
13:00−4ssw71294100 3.6 1010893
16:00−2ssw91691100 0.6 1008914
19:00−1ssw91695100 2.3 1008994
22:00−1sw71396100 1.6 1007943
2 march, tue
tue201:00−2wsw61296100 2.5 1008718
04:00−3wsw61394100 0.9 1011730
07:00−7w3896100 1.7 1014373
10:00−8w5109498 0.4 1016568
13:00−8wsw579199 0.8 1018631
16:00−9wsw4691100 0.2 1018581
19:00−11wsw2296100 0.3 101835
22:00−14ssw119892 0.1 101820
3 march, wed
wed301:00−15se119795 0.1 101620
04:00−14se1197100 0.1 101520
07:00−13ene1197100 0.3 101520
10:00−11se0095100 0.3 101598
13:00−8wsw2391100 0.5 1016389
16:00−8wsw4692100 0.4 1018614
19:00−10wsw4894100 0.8 1020418
22:00−13sw489595 0.1 1023317
4 march, thu
thu401:00−17sw369895 0.2 1025140
04:00−20s2310099 0.0 102545
07:00−21sse3610097 0.1 102696
10:00−16sse479699 0.0 1025248
13:00−10sse599399 0.1 1024466
16:00−7s5990100 0.1 1022697
19:00−8sse4991100 0.1 1020302
22:00−9sse41189100 0.0 1018271